Regional Weather Roundup
Issued by NWS

Home | Current Version | Previous Version | Graphics & Text | Print | Product List | Glossary On
Versions: 1 2 3 4 5 6 7 8 9 10 11 12 13 14 15 16 17 18 19 20 21 22 23 24 25 26 27 28 29 30 31 32 33 34 35 36 37 38 39 40 41 42 43 44 45 46 47 48 49 50
626
ASUS43 KLSX 162307
RWRMO

WEATHER SUMMARY FOR MISSOURI
NATIONAL WEATHER SERVICE SPRINGFIELD MO
600 PM CDT WED AUG 16 2017

NOTE: "FAIR" INDICATES FEW OR NO CLOUDS BELOW 12,000 FEET WITH NO
       SIGNIFICANT WEATHER AND/OR OBSTRUCTIONS TO VISIBILITY.
       CURRENT SKY AND/OR WEATHER CONDITIONS ARE NOT AVAILABLE FOR
       CHILLICOTHE AND FARMINGTON.

MOZ001>031-035>038-043-044-053-054-170000-
...NORTHERN AND WESTERN MISSOURI...

CITY           SKY/WX    TMP DP  RH WIND       PRES   REMARKS
KANSAS CTY INT CLOUDY    80  71  74 W6        29.80S
KANSAS C DTWN  CLOUDY    83  74  74 W7        29.77F
LEE`S SUMMIT   TSTM      76  75  97 SW12      29.78F FOG
ST JOSEPH      CLOUDY    81  71  71 SW3       29.77F
CHILLICOTHE      N/A     78  77  96 S9G17     29.79R
KIRKSVILLE     CLOUDY    83  73  72 S14       29.79F

$$
MOZ066>068-077>081-088>096-101>105-170000-
...SOUTHWEST MISSOURI...

CITY           SKY/WX    TMP DP  RH WIND       PRES   REMARKS
SPRINGFIELD    CLOUDY    81  76  84 S13       29.88F
JOPLIN         SUNNY     86  73  65 S15       29.85S HX  93
BRANSON        PTSUNNY   81  73  78 SW5       29.93F

$$
MOZ032>034-039>042-045>050-055>058-069>072-170000-
...CENTRAL MISSOURI...

CITY           SKY/WX    TMP DP  RH WIND       PRES   REMARKS
COLUMBIA       CLOUDY    74  71  91 S14       29.85F
JEFFERSON CITY CLOUDY    73  72  96 SE9       29.85F
ROLLA          CLOUDY    71  71 100 SE16      29.93F
SEDALIA        SUNNY     80  76  87 S9        29.84F
WHITEMAN AFB   PTSUNNY   80  80 100 SW10      29.79F
WARRENSBURG    PTSUNNY   81  72  74 S7G16     29.80F
OSAGE BEACH    CLOUDY    74  72  93 VRB7      29.87F

$$
MOZ051-052-059>065-170000-
...EAST CENTRAL MISSOURI...

CITY           SKY/WX    TMP DP  RH WIND       PRES   REMARKS
ST LOUIS INTL  TSTM      74  73  97 SE16      29.91F
SPIRIT OF STL  LGT RAIN  74  73  97 S9        29.90R
ST CHARLES     LGT RAIN  74  73  97 SE12      29.88F

$$
MOZ072>076-082>087-097>100-106>115-170000-
...SOUTH CENTRAL AND SOUTHEAST MISSOURI...

CITY           SKY/WX    TMP DP  RH WIND       PRES   REMARKS
CAPE GIRARDEAU CLOUDY    84  75  74 S8        29.93R HX  92
FARMINGTON     CLOUDY    76  74  93 CALM      29.97R
POPLAR BLUFF   SUNNY     84  77  79 S6        29.92F HX  94
WEST PLAINS    CLOUDY    87  72  60 SW7       29.95R HX  93

$$



USA.gov is the U.S. government's official web portal to all federal, state and local government web resources and services.